Regional Weather Roundup
Issued by NWS State College, PA

Home | Current Version | Previous Version | Text Only | Print | Product List | Glossary On
Versions: 1 2 3 4 5 6 7 8 9 10 11 12 13 14 15 16 17 18 19 20 21 22 23 24 25 26 27 28 29 30 31 32 33 34 35 36 37 38 39 40 41 42 43 44 45 46 47 48 49 50
000
ASUS41 KCTP 310310
RWRCTP

REGIONAL WEATHER ROUNDUP
NATIONAL WEATHER SERVICE STATE COLLEGE PA
1100 PM EDT SUN AUG 30 2015

Note: "fair" indicates few or no clouds below 12,000 feet with no
significant weather and/or obstructions to visibility.

* = STATION THAT DOES NOT REPORT PRECIPITATION /E.G. RAIN...SNOW...ETC/
    THUNDER OR FOG.

PAZ002>004-007>009-013>016-020>023-029>032-310400-
WESTERN PENNSYLVANIA

CITY           SKY/WX    TMP DP  RH WIND       PRES   REMARKS
ERIE           PTCLDY    71  65  81 S6        30.05F
MEADVILLE      CLEAR     71  66  84 CALM      30.09F
FRANKLIN*      CLEAR     68  66  94 CALM      30.12S
NEW CASTLE     FAIR      72  68  87 CALM      30.10S
BEAVER COUNTY  NOT AVBL
BUTLER*        PTCLDY    70  66  88 SW3       30.12S
PITTSBURGH INT MOCLDY    73  64  73 SW3       30.10S
PITTSBURGH     MOCLDY    74  63  68 S6        30.11R
INDIANA*       PTCLDY    68  66  94 CALM      30.15S
LATROBE        NOT AVBL
WASHINGTON CO* MOCLDY    68  66  94 CALM      30.12S
$$

PAZ004>006-010>012-017>019-024>028-033>037-041-042-045-046-049>053-310400-
CENTRAL PENNSYLVANIA

CITY           SKY/WX    TMP DP  RH WIND       PRES   REMARKS
BRADFORD       CLEAR     63  61  93 CALM      30.13F FOG
DUBOIS         PTCLDY    69  65  86 S3        30.12S FOG
CLEARFIELD     PTCLDY    67  64  90 CALM      30.13S
JOHNSTOWN      CLOUDY    71  61  70 SW5       30.16S
ALTOONA        CLOUDY    75  61  61 SW6       30.13S
STATE COLLEGE  MOCLDY    72  66  81 W3        30.10F
WILLIAMSPORT   CLOUDY    72  68  87 CALM      30.06S
SELINSGROVE    MOCLDY    69  67  93 CALM      30.07S FOG
FT INDIANTOWN  CLOUDY    73  67  82 SW5       30.07S
CAPITAL CITY   CLOUDY    75  65  70 W6        30.07S
HARRISBURG     CLOUDY    77  67  71 CALM      30.06F
YORK           CLOUDY    75  67  76 CALM      30.08F
$$

PAZ038>040-043-044-047-048-054-055-060>062-067>071-310400-
EASTERN PENNSYLVANIA

CITY           SKY/WX    TMP DP  RH WIND       PRES   REMARKS
SCRANTON       CLOUDY    74  64  71 CALM      30.07F
MOUNT POCONO   MOCLDY    69  64  84 W8        30.12F
ALLENTOWN      MOCLDY    73  67  81 CALM      30.06S
QUAKERTOWN*    CLOUDY    73  66  78 SW3       30.08S
READING        CLOUDY    77  67  71 SW5       30.06S
LANCASTER      CLOUDY    75  69  81 W5        30.08S
COATESVILLE    CLOUDY    73  70  88 W3        30.10S
POTTSTOWN      CLOUDY    75  67  76 SW5       30.09R
BLUE BELL      CLOUDY    79  68  69 SW6       30.07S
DOYLESTOWN     CLOUDY    75  66  73 S5        30.06S
WILLOW GROVE   NOT AVBL
NORTH PHILA    CLOUDY    82  63  52 SW12      30.07S
PHILADELPHIA   CLOUDY    81  65  58 SW10      30.07S
$$



USA.gov is the U.S. government's official web portal to all federal, state and local government web resources and services.